When you browse on this site, cookies collect data to enhance your experience and personalize the content and advertising you see.
Visit our Privacy Policy to learn more. By continuing to use the site, you agree to this use of cookies and data.
  • In Czech Republic
  • List of Countries
  • For 7 days
  • Water Temperature
  • Satellite Maps
  • Weather Map
  • Weather Widgets
  • user-avatar
    Login

    Hourly Weather Northallerton

    Today, 13 December, Thursday

    Time Temperature Precipitation Wind Pressure Humidity
    00:00 +1°C° 0 mm 6 mps 760 mmHg 81%
    01:00 +1°C° 0 mm 6 mps 759 mmHg 81%
    02:00 +1°C° 0 mm 6 mps 759 mmHg 82%
    03:00 +1°C° 0 mm 6 mps 759 mmHg 82%
    04:00 +1°C° 0 mm 6 mps 759 mmHg 81%
    05:00 +1°C° 0 mm 6 mps 759 mmHg 81%
    06:00 0°C° 0 mm 7 mps 759 mmHg 80%
    07:00 +1°C° 0 mm 6 mps 759 mmHg 79%
    08:00 +1°C° 0 mm 6 mps 759 mmHg 78%
    09:00 +1°C° 0 mm 6 mps 759 mmHg 77%
    10:00 +2°C° 0 mm 6 mps 760 mmHg 76%
    11:00 +2°C° 0 mm 7 mps 760 mmHg 75%
    12:00 +3°C° 0 mm 7 mps 760 mmHg 74%
    13:00 +3°C° 0 mm 6 mps 760 mmHg 75%
    14:00 +2°C° 0 mm 6 mps 760 mmHg 77%
    15:00 +2°C° 0 mm 5 mps 760 mmHg 78%
    16:00 +2°C° 0 mm 5 mps 761 mmHg 80%
    17:00 +1°C° 0 mm 5 mps 761 mmHg 82%
    18:00 +1°C° 0 mm 4 mps 761 mmHg 85%
    19:00 0°C° 0 mm 4 mps 762 mmHg 85%
    20:00 0°C° 0 mm 4 mps 762 mmHg 86%
    21:00 +1°C° 0 mm 3 mps 762 mmHg 87%
    22:00 +1°C° 0 mm 3 mps 763 mmHg 87%
    23:00 +1°C° 0 mm 3 mps 763 mmHg 87%

    Tomorrow, 14 December, Friday

    Time Temperature Precipitation Wind Pressure Humidity
    00:00 +2°C° 0 mm 2 mps 763 mmHg 87%
    01:00 +2°C° 0 mm 2 mps 763 mmHg 87%
    02:00 +2°C° 0 mm 2 mps 763 mmHg 87%
    03:00 +1°C° 0 mm 3 mps 763 mmHg 88%
    04:00 +2°C° 0 mm 2 mps 763 mmHg 88%
    05:00 +1°C° 0 mm 2 mps 763 mmHg 89%
    06:00 +1°C° 0 mm 2 mps 763 mmHg 89%
    07:00 +1°C° 0 mm 2 mps 764 mmHg 89%
    08:00 +1°C° 0 mm 2 mps 764 mmHg 89%
    09:00 +1°C° 0 mm 2 mps 764 mmHg 89%
    10:00 +1°C° 0 mm 3 mps 764 mmHg 84%
    11:00 +1°C° 0 mm 4 mps 764 mmHg 78%
    12:00 +2°C° 0 mm 5 mps 764 mmHg 73%
    13:00 +1°C° 0 mm 4 mps 763 mmHg 75%
    14:00 +1°C° 0 mm 4 mps 763 mmHg 76%
    15:00 +1°C° 0 mm 4 mps 763 mmHg 78%
    16:00 0°C° 0 mm 4 mps 763 mmHg 80%
    17:00 0°C° 0 mm 4 mps 763 mmHg 81%
    18:00 -1°C° 0 mm 4 mps 763 mmHg 83%
    19:00 -1°C° 0 mm 4 mps 762 mmHg 83%
    20:00 -1°C° 0 mm 4 mps 762 mmHg 82%
    21:00 -1°C° 0 mm 4 mps 762 mmHg 82%
    22:00 -1°C° 0 mm 4 mps 762 mmHg 83%
    23:00 -1°C° 0 mm 5 mps 762 mmHg 83%

    Day after tomorrow, 15 December, Saturday

    Time Temperature Precipitation Wind Pressure Humidity
    00:00 -1°C° 0 mm 5 mps 761 mmHg 84%
    01:00 -1°C° 0 mm 5 mps 761 mmHg 82%
    02:00 -2°C° 0 mm 6 mps 760 mmHg 80%
    03:00 -2°C° 0 mm 6 mps 760 mmHg 78%
    04:00 -2°C° 0 mm 6 mps 759 mmHg 80%
    05:00 -2°C° 0 mm 6 mps 758 mmHg 81%
    06:00 -2°C° 0 mm 6 mps 758 mmHg 83%
    07:00 -2°C° 0 mm 7 mps 757 mmHg 81%
    08:00 -2°C° 0 mm 8 mps 756 mmHg 79%
    09:00 -1°C° 0 mm 9 mps 756 mmHg 77%
    10:00 -1°C° 0.1 mm 9 mps 755 mmHg 75%
    11:00 -2°C° 0.1 mm 10 mps 754 mmHg 73%
    12:00 0°C° 0.1 mm 10 mps 753 mmHg 71%
    13:00 0°C° 0.5 mm 10 mps 752 mmHg 75%
    14:00 -2°C° 0.5 mm 10 mps 750 mmHg 78%
    15:00 -2°C° 0.5 mm 10 mps 749 mmHg 82%
    16:00 -2°C° 0.9 mm 10 mps 748 mmHg 84%
    17:00 0°C° 0.9 mm 9 mps 747 mmHg 86%
    18:00 0°C° 0.9 mm 9 mps 746 mmHg 88%
    19:00 0°C° 4.2 mm 8 mps 745 mmHg 90%
    20:00 0°C° 4.2 mm 8 mps 744 mmHg 91%
    21:00 0°C° 4.2 mm 7 mps 742 mmHg 93%
    22:00 +2°C° 2.4 mm 6 mps 741 mmHg 94%
    23:00 +2°C° 2.4 mm 5 mps 740 mmHg 95%

    16 December, Sunday

    Time Temperature Precipitation Wind Pressure Humidity
    00:00 +3°C° 2.4 mm 4 mps 739 mmHg 95%
    01:00 +2°C° 1.9 mm 5 mps 738 mmHg 95%
    02:00 +2°C° 1.9 mm 5 mps 737 mmHg 95%
    03:00 +2°C° 1.9 mm 6 mps 737 mmHg 94%
    04:00 +2°C° 1.8 mm 8 mps 737 mmHg 90%
    05:00 +2°C° 1.8 mm 9 mps 737 mmHg 87%
    06:00 +2°C° 1.8 mm 11 mps 738 mmHg 83%
    07:00 +2°C° 0.4 mm 11 mps 739 mmHg 81%
    08:00 +2°C° 0.4 mm 11 mps 740 mmHg 80%
    09:00 +2°C° 0.4 mm 10 mps 741 mmHg 78%
    10:00 +3°C° 0 mm 10 mps 742 mmHg 78%
    11:00 +3°C° 0 mm 9 mps 743 mmHg 79%
    12:00 +3°C° 0 mm 9 mps 744 mmHg 79%
    13:00 +4°C° 0 mm 8 mps 745 mmHg 80%
    14:00 +3°C° 0 mm 7 mps 746 mmHg 82%
    15:00 +3°C° 0 mm 6 mps 748 mmHg 83%
    16:00 +3°C° 0 mm 5 mps 748 mmHg 85%
    17:00 +2°C° 0 mm 5 mps 749 mmHg 87%
    18:00 +3°C° 0 mm 4 mps 750 mmHg 88%
    19:00 +1°C° 0 mm 4 mps 750 mmHg 89%
    20:00 +2°C° 0 mm 3 mps 751 mmHg 90%
    21:00 +2°C° 0 mm 3 mps 751 mmHg 91%
    22:00 +2°C° 0 mm 3 mps 752 mmHg 91%
    23:00 +2°C° 0 mm 3 mps 752 mmHg 92%

    17 December, Monday

    Time Temperature Precipitation Wind Pressure Humidity
    00:00 +2°C° 0 mm 3 mps 752 mmHg 92%
    01:00 +2°C° 0 mm 3 mps 753 mmHg 92%
    02:00 +2°C° 0 mm 3 mps 753 mmHg 92%
    03:00 +2°C° 0 mm 3 mps 753 mmHg 91%
    04:00 +2°C° 0 mm 3 mps 754 mmHg 91%
    05:00 +2°C° 0 mm 2 mps 754 mmHg 91%
    06:00 +2°C° 0 mm 2 mps 755 mmHg 91%
    07:00 +2°C° 0 mm 2 mps 755 mmHg 91%
    08:00 +2°C° 0 mm 2 mps 756 mmHg 91%
    09:00 +2°C° 0 mm 2 mps 756 mmHg 91%
    10:00 +3°C° 0 mm 2 mps 756 mmHg 90%
    11:00 +4°C° 0 mm 2 mps 757 mmHg 89%
    12:00 +4°C° 0 mm 2 mps 757 mmHg 88%
    13:00 +3°C° 0 mm 3 mps 757 mmHg 89%
    14:00 +3°C° 0 mm 3 mps 757 mmHg 90%
    15:00 +3°C° 0 mm 3 mps 756 mmHg 91%
    16:00 +3°C° 0 mm 4 mps 756 mmHg 91%
    17:00 +3°C° 0 mm 4 mps 756 mmHg 92%
    18:00 +2°C° 0 mm 5 mps 756 mmHg 92%
    19:00 +2°C° 0.1 mm 5 mps 756 mmHg 92%
    20:00 +3°C° 0.1 mm 6 mps 755 mmHg 93%
    21:00 +3°C° 0.1 mm 6 mps 755 mmHg 93%
    22:00 +4°C° 0.1 mm 7 mps 755 mmHg 93%
    23:00 +4°C° 0.1 mm 7 mps 754 mmHg 93%

    18 December, Tuesday

    Time Temperature Precipitation Wind Pressure Humidity
    00:00 +5°C° 0.1 mm 7 mps 754 mmHg 93%
    01:00 +5°C° 0.1 mm 7 mps 753 mmHg 92%
    02:00 +5°C° 0.1 mm 8 mps 752 mmHg 92%
    03:00 +6°C° 0.1 mm 8 mps 751 mmHg 91%
    04:00 +6°C° 0 mm 8 mps 751 mmHg 90%
    05:00 +7°C° 0 mm 9 mps 750 mmHg 89%
    06:00 +7°C° 0 mm 9 mps 749 mmHg 89%
    07:00 +7°C° 0.1 mm 10 mps 748 mmHg 88%
    08:00 +7°C° 0.1 mm 10 mps 747 mmHg 87%
    09:00 +7°C° 0.1 mm 11 mps 747 mmHg 86%
    10:00 +7°C° 0.8 mm 11 mps 746 mmHg 85%
    11:00 +7°C° 0.8 mm 11 mps 745 mmHg 84%
    12:00 +7°C° 0.8 mm 11 mps 745 mmHg 82%
    13:00 +6°C° 1.3 mm 11 mps 744 mmHg 83%
    14:00 +6°C° 1.3 mm 11 mps 743 mmHg 83%
    15:00 +5°C° 1.3 mm 10 mps 742 mmHg 84%
    16:00 +5°C° 1.7 mm 10 mps 742 mmHg 85%
    17:00 +5°C° 1.7 mm 9 mps 741 mmHg 86%
    18:00 +5°C° 1.7 mm 9 mps 740 mmHg 87%
    19:00 +5°C° 0.2 mm 8 mps 740 mmHg 89%
    20:00 +4°C° 0.2 mm 6 mps 740 mmHg 90%
    21:00 +5°C° 0.2 mm 5 mps 740 mmHg 91%
    22:00 +5°C° 0 mm 5 mps 740 mmHg 91%
    23:00 +5°C° 0 mm 5 mps 740 mmHg 91%
    Show more